| time (UTC) | temp F | wind direction | speed MPH | gust MPH | rain 1hr in | rain 24hr in | rain mn in | humidity % | barometer mb |
| 20260505054539 | 63 | 171 | 0.0 | 0.0 | 0.00 | 0.00 | 0.00 | 62 | 1009.2 |
| 20260505053042 | 64 | 170 | 0.0 | 2.0 | 0.00 | 0.00 | 0.00 | 61 | 1009.3 |
| 20260505051535 | 64 | 142 | 0.0 | 5.0 | 0.00 | 0.00 | 0.00 | 60 | 1009.2 |
| 20260505041521 | 0 | 0.0 | 0.0 | 0.00 | 0.00 | 0.00 | 1009.0 | ||
| 20260505040018 | 58 | 268 | 0.0 | 0.0 | 0.00 | 0.00 | 0.00 | 67 | 1009.0 |
| 20260505034515 | 58 | 268 | 0.0 | 0.0 | 0.00 | 0.00 | 0.00 | 67 | 1008.9 |
| 20260505033020 | 59 | 291 | 0.0 | 1.0 | 0.00 | 0.00 | 0.00 | 66 | 1009.0 |
| 20260505031513 | 62 | 304 | 0.0 | 0.0 | 0.00 | 0.00 | 0.00 | 59 | 1008.9 |
| 20260505030015 | 64 | 307 | 0.0 | 2.0 | 0.00 | 0.00 | 0.00 | 55 | 1009.0 |
| 20260505024514 | 64 | 247 | 0.0 | 4.0 | 0.00 | 0.00 | 0.00 | 54 | 1008.8 |
| 20260505023016 | 64 | 155 | 2.0 | 6.0 | 0.00 | 0.00 | 0.00 | 55 | 1008.7 |
| 20260505021515 | 64 | 156 | 1.0 | 7.0 | 0.00 | 0.00 | 0.00 | 54 | 1008.6 |
| 20260505020014 | 64 | 142 | 0.0 | 7.0 | 0.00 | 0.00 | 0.00 | 53 | 1008.8 |
| 20260505014515 | 65 | 165 | 1.0 | 6.0 | 0.00 | 0.00 | 0.00 | 52 | 1008.7 |
| 20260505013012 | 65 | 154 | 2.0 | 6.0 | 0.00 | 0.00 | 0.00 | 51 | 1008.7 |
| 20260505011514 | 66 | 181 | 1.0 | 8.0 | 0.00 | 0.00 | 0.00 | 49 | 1008.8 |
| 20260505010010 | 66 | 173 | 1.0 | 6.0 | 0.00 | 0.00 | 0.00 | 49 | 1008.5 |
| 20260505004523 | 68 | 136 | 1.0 | 6.0 | 0.00 | 0.00 | 0.00 | 46 | 1008.3 |
| 20260505003007 | 69 | 199 | 1.0 | 4.0 | 0.00 | 0.00 | 0.00 | 45 | 1008.2 |
| 20260505001505 | 69 | 153 | 0.0 | 4.0 | 0.00 | 0.00 | 0.00 | 43 | 1008.1 |
| 20260505000006 | 69 | 140 | 1.0 | 7.0 | 0.00 | 0.00 | 0.00 | 42 | 1008.1 |
| 20260504234513 | 71 | 136 | 2.0 | 10.0 | 0.00 | 0.00 | 0.00 | 40 | 1007.9 |
| 20260504233007 | 72 | 172 | 1.0 | 6.0 | 0.00 | 0.00 | 0.00 | 40 | 1007.9 |
| 20260504231514 | 72 | 117 | 2.0 | 10.0 | 0.00 | 0.00 | 0.00 | 40 | 1007.8 |
| 20260504230003 | 73 | 150 | 2.0 | 13.0 | 0.00 | 0.00 | 0.00 | 40 | 1008.0 |
| 20260504224605 | 72 | 209 | 3.0 | 9.0 | 0.00 | 0.00 | 0.00 | 48 | 1008.0 |
| 20260504223054 | 73 | 216 | 3.0 | 10.0 | 0.00 | 0.00 | 0.00 | 39 | 1008.1 |
| 20260504221602 | 74 | 219 | 3.0 | 10.0 | 0.00 | 0.00 | 0.00 | 38 | 1008.1 |
| 20260504220053 | 74 | 155 | 2.0 | 14.0 | 0.00 | 0.00 | 0.00 | 39 | 1008.0 |
| 20260504214553 | 74 | 289 | 4.0 | 13.0 | 0.00 | 0.00 | 0.00 | 37 | 1008.1 |
| 20260504213053 | 74 | 160 | 3.0 | 13.0 | 0.00 | 0.00 | 0.00 | 37 | 1008.2 |
| 20260504211544 | 0 | 0.0 | 0.0 | 0.00 | 0.00 | 0.00 | 1008.1 | ||
| 20260504210053 | 74 | 241 | 4.0 | 9.0 | 0.00 | 0.00 | 0.00 | 36 | 1008.0 |
| 20260504204619 | 74 | 148 | 2.0 | 8.0 | 0.00 | 0.00 | 0.00 | 38 | 1008.0 |
| 20260504203040 | 74 | 256 | 5.0 | 13.0 | 0.00 | 0.00 | 0.00 | 38 | 1008.2 |
| 20260504201537 | 74 | 193 | 3.0 | 10.0 | 0.00 | 0.00 | 0.00 | 39 | 1008.4 |
| 20260504200039 | 73 | 139 | 8.0 | 16.0 | 0.00 | 0.00 | 0.00 | 38 | 1008.7 |
| 20260504194547 | 73 | 217 | 4.0 | 13.0 | 0.00 | 0.00 | 0.00 | 38 | 1008.9 |
| 20260504193036 | 73 | 276 | 5.0 | 12.0 | 0.00 | 0.00 | 0.00 | 38 | 1009.1 |
| 20260504191533 | 73 | 233 | 4.0 | 11.0 | 0.00 | 0.00 | 0.00 | 38 | 1009.4 |
| 20260504190036 | 73 | 166 | 4.0 | 11.0 | 0.00 | 0.00 | 0.00 | 39 | 1009.5 |
| 20260504184526 | 73 | 326 | 2.0 | 9.0 | 0.00 | 0.00 | 0.00 | 37 | 1009.9 |
| 20260504183027 | 72 | 333 | 3.0 | 12.0 | 0.00 | 0.00 | 0.00 | 41 | 1010.1 |
| 20260504181521 | 72 | 143 | 3.0 | 8.0 | 0.00 | 0.00 | 0.00 | 38 | 1010.4 |
| 20260504180020 | 72 | 329 | 2.0 | 8.0 | 0.00 | 0.00 | 0.00 | 39 | 1010.5 |
| 20260504174520 | 71 | 161 | 3.0 | 7.0 | 0.00 | 0.00 | 0.00 | 39 | 1010.7 |
| 20260504173017 | 71 | 222 | 3.0 | 8.0 | 0.00 | 0.00 | 0.00 | 38 | 1010.7 |
| 20260504171532 | 70 | 186 | 1.0 | 8.0 | 0.00 | 0.00 | 0.00 | 40 | 1010.9 |
| 20260504081555 | 38 | 290 | 0.0 | 0.0 | 0.00 | 0.00 | 0.00 | 80 | 1014.4 |